• MPC Preparation (Info)

  • MPEC 2022-R87 : 2022 RQ1

    The following Minor Planet Electronic Circular may be linked-to from your own Web pages, but must not otherwise be redistributed electronically.

    A form allowing access to any MPEC is at the bottom of this page.


    Read MPEC 2022-R86 Read MPEC 2022-R88


    M.P.E.C. 2022-R87                             Issued 2022 September 5, 01:23 UT
    
         The Minor Planet Electronic Circulars contain information on unusual
             minor planets and routine data on comets.  They are published
        on behalf of Division F of the International Astronomical Union by the
              Minor Planet Center, Smithsonian Astrophysical Observatory,
                              Cambridge, MA 02138, U.S.A.
    
                 Prepared using the Tamkin Foundation Computer Network
    
                                  MPC@CFA.HARVARD.EDU
                URL https://www.minorplanetcenter.net/    ISSN 1523-6714
    
                                    2022 RQ1                                 
    
    
    Observations:
         K22R01Q* C2022 09 04.47295023 07 49.394-08 07 27.26         19.17oVER087T08
         K22R01Q  C2022 09 04.47613923 07 50.066-08 08 57.52         17.74oVER087T08
         K22R01Q  C2022 09 04.51065723 07 57.010-08 25 07.18         17.95oVER087T08
         K22R01Q  C2022 09 04.51948823 07 58.903-08 29 09.13         18.48oVER087T08
         K22R01Q KC2022 09 04.86604023 10 49.32 -10 50 44.5          18.1 GVER087104
         K22R01Q KC2022 09 04.87761823 10 51.57 -10 54 47.9          18.3 GVER087104
         K22R01Q KC2022 09 04.88344723 10 52.67 -10 56 49.6          18.2 GVER087104
         K22R01Q KC2022 09 04.89084823 10 58.61 -10 59 11.2          18.3 GXER087958
         K22R01Q KC2022 09 04.89304423 10 52.90 -11 00 16.4          19.1 GXER087L01
         K22R01Q KC2022 09 04.89390323 10 53.06 -11 00 34.4          19.1 GXER087L01
         K22R01Q KC2022 09 04.89466923 10 53.18 -11 00 50.0          18.9 GXER087L01
         K22R01Q KC2022 09 04.89543123 10 53.31 -11 01 05.8          18.9 GXER087L01
         K22R01Q KC2022 09 04.89623323 10 53.45 -11 01 22.3          19.0 GXER087L01
         K22R01Q KC2022 09 04.90096823 10 55.902-11 02 50.47         18.3 GVER087K63
         K22R01Q KC2022 09 04.90391923 10 56.457-11 03 50.64         19.0 GVER087K63
         K22R01Q KC2022 09 04.90498223 11 01.29 -11 04 01.4          18.6 GXER087958
         K22R01Q KC2022 09 04.90675623 10 57.24 -11 04 56.7                VER087203
         K22R01Q KC2022 09 04.90693223 10 56.967-11 04 52.47         17.9 GVER087K63
         K22R01Q KC2022 09 04.90983623 10 57.456-11 05 51.93         18.9 GVER087K63
         K22R01Q KC2022 09 04.90998023 11 02.27 -11 05 44.3          18.6 GXER087958
         K22R01Q KC2022 09 04.91498023 11 03.15 -11 07 25.7          18.2 GXER087958
         K22R01Q KC2022 09 04.93732323 11 06.39 -11 15 01.0          18.8 GXER087I93
         K22R01Q KC2022 09 04.94170323 11 07.11 -11 16 27.9          19.3 GXER087I93
         K22R01Q KC2022 09 04.94600323 11 07.80 -11 17 53.2          19.0 GXER087I93
         K22R01Q KC2022 09 04.94860023 11 04.03 -11 18 53.3                VER087203
         K22R01Q KC2022 09 04.96345223 11 06.30 -11 23 43.4          18.7 GVER087203
         K22R01Q KC2022 09 04.97764823 11 36.162-11 18 30.80         18.0 GXER087Y00
         K22R01Q KC2022 09 04.98537723 11 37.500-11 21 05.52         18.5 GXER087Y00
    
    Observer details:
    104 San Marcello Pistoiese.  Observers P. Bacci, M. Maestripieri.  Measurers
        P. Bacci, L. Tesi, G. Fagioli.  0.60-m F4 Reflector + CCD.
    203 GiaGa Observatory.  Observers S. Foglia, G. Galli.  Measurer G. Galli.
        0.36-m f/5.76 Schmidt-Cassegrain + CCD.
    958 Observatoire de Dax.  Observers P. Dupouy, J. B. de Vanssay.  Measurer P.
        Dupouy.  0.43-m f/2.7 Reflector + CCD.
    I93 St Pardon de Conques.  Observer F. Losse.  0.40-m f/3.7 reflector + CCD.
    K63 G. Pascoli Observatory, Castelvecchio Pascoli.  Observer R. Bacci.  0.4-m
        f/3.2 0.40m f/3.2  Newton + CCD.
    L01 Visnjan Observatory, Tican.  Observers K. Korlevic, E. Pettarin.  Measurer
        E. Pettarin.  1.0-m f/2.9 reflector + CCD.
    T08 ATLAS-MLO, Mauna Loa.  Observers L. Denneau, R. Siverd, J. Tonry, H.
        Weiland.  Measurers L. Denneau, N. Erasmus, A. Fitzsimmons, A. Lawrence,
        J. Robinson, R. Siverd, J. Tonry, H. Weiland.  0.5-m Reflector + CCD.
    Y00 SONEAR Observatory, Oliveira.  Observer C. Jacques.  0.45-m f/2.9
        reflector + CCD.
    
    Orbital elements:
    2022 RQ1                                                 Earth MOID = 0.0041 AU
    Epoch 2022 Aug. 9.0 TT = JDT 2459800.5                  Bell                    
    M  29.63139              (2000.0)            P               Q                  
    n   0.78233577     Peri.   93.75993     -0.25218114     +0.96695394             
    a   1.1664709      Node   161.50216     -0.92810662     -0.23072361             
    e   0.3259100      Incl.    6.78436     -0.27390286     -0.10847435             
    P   1.26           H   27.38          G   0.15           U   8                  
    Residuals in seconds of arc
    220904 T08  0.0   0.9-    220904 L01  0.3-  0.3+    220904 958  0.4+  0.4+
    220904 T08  0.6+  0.1+    220904 L01  0.3-  0.2+    220904 I93  0.5-  0.3+
    220904 T08  0.4-  0.2-    220904 L01  0.4-  0.2+    220904 I93  0.4-  0.5+
    220904 T08  0.2-  0.6+    220904 K63  0.5-  0.2+    220904 I93  0.5-  0.4+
    220904 104  0.2-  0.0     220904 K63  0.2+  0.4+    220904 203  0.6-  0.6+
    220904 104  0.1-  0.2-    220904 958  0.1-  0.6+    220904 203  0.4-  0.6+
    220904 104  0.0   0.4-    220904 203  0.4+  0.4-    220904 Y00  1.4+  0.0
    220904 958  0.6+  0.6-    220904 K63  0.2+  0.1+    220904 Y00  0.9+  1.6-
    220904 L01  0.2-  0.5+    220904 K63  0.2+  0.3-
    220904 L01  0.1-  0.2+    220904 958  0.7+  0.0
    
    Ephemeris:
    2022 RQ1                 a,e,i = 1.17, 0.33, 7                   q = 0.7863
    Date    TT    R. A. (2000) Decl.     Delta      r    Elong.  Phase     V
    2022 08 06    11 16 39.6 +25 11 33   0.1752  0.8712    32.2   141.6    30.4
    ...
    2022 08 21    11 27 16.9 +27 49 04   0.07606 0.9439    25.8   152.2    30.5
    ...
    2022 08 29    11 35 35.5 +33 35 22   0.02706 0.9864    28.5   150.7    28.1
    ...
    2022 09 04    23 03 29.4 -03 16 07   0.01054 1.0191   174.8     5.2    18.0
    2022 09 05    23 11 13.7 -11 27 36   0.01631 1.0246   173.9     6.0    19.0
    2022 09 06    23 15 01.8 -15 19 18   0.02224 1.0301   170.3     9.5    19.8
    ...
    2022 09 12    23 21 40.6 -21 38 38   0.05879 1.0629   162.7    16.3    22.2
    ...
    2022 09 20    23 23 33.5 -22 57 12   0.1093  1.1063   157.6    20.3    23.8
    ...
    2022 10 05    23 26 58.8 -22 11 31   0.2123  1.1849   147.6    26.9    25.6
    
    M. P. C. Staff               (C) Copyright 2022 MPC           M.P.E.C. 2022-R87
    


    Read MPEC 2022-R86 Read MPEC 2022-R88


    MPEC number:

    Enter an MPEC number in one of the following forms:

    • 1997-B01 (the full form)
    • J97B01 (the packed version of the full form)
    • B01 (the abbreviated form)